Wind_Gust
17 17 17 17 16 17 18 18 18 19 18 18 18 18 17 16 16 15 16 15 15 15 16 16 17 16 17 17 17 16 16 16 16 15 16 16 16 15 16 17 17 17 16 16 16 16 18 18 19 19 19 20 21 20 21 22 23 22 21 22 23 22 23 24 28 32 31 28 29 32 31 30 33 28 32 32 32 32 27 29 29 26 26 24 24
18 17 17 18 18 18 18 17 19 19 18 18 17 18 17 16 15 16 15 15 16 16 16 15 15 17 17 18 17 18 17 17 16 16 16 16 15 15 16 17 17 17 15 18 17 17 16 18 19 20 20 21 21 22 24 24 25 25 24 24 24 24 23 28 27 29 33 33 32 28 33 30 34 28 30 31 31 31 33 32 31 29 29 27 27
18 18 18 19 18 18 18 18 18 17 18 17 17 17 16 15 15 15 16 15 15 15 16 16 16 17 18 18 18 18 18 17 16 16 16 16 17 16 16 16 16 17 17 17 18 17 18 18 20 21 21 21 22 21 21 23 25 24 24 24 24 24 25 24 28 30 31 34 33 34 30 32 32 33 31 31 30 32 33 31 31 30 29 27 31
19 19 19 19 18 18 18 18 17 17 18 17 17 16 16 15 15 15 15 14 15 14 15 16 17 17 17 19 19 19 19 18 17 17 17 16 16 17 16 16 16 16 16 17 18 19 18 18 19 21 21 21 21 22 23 24 26 25 24 24 24 25 25 24 25 28 30 34 32 36 34 34 35 33 32 32 33 31 31 32 32 32 32 31 29
19 19 19 19 18 18 17 18 18 18 17 17 16 16 15 16 15 16 15 15 15 14 15 15 16 18 18 20 20 20 20 19 18 17 16 15 16 15 16 15 15 16 16 17 15 18 18 18 20 21 21 22 23 23 25 25 26 26 26 27 27 26 26 27 27 27 29 32 34 32 33 33 34 34 33 36 33 32 28 30 30 33 32 30 30
20 20 19 19 19 18 18 18 18 18 17 16 16 15 15 15 15 14 15 15 15 15 16 16 18 19 20 20 20 20 21 21 20 19 17 16 15 15 15 15 16 17 17 18 18 17 17 18 20 21 22 23 24 25 26 25 26 27 27 28 28 26 26 26 26 27 27 29 31 37 29 35 34 32 32 33 35 37 35 31 28 28 29 32 31
20 20 19 19 19 18 17 17 17 16 16 16 15 15 15 14 15 15 14 14 14 15 15 17 17 19 19 20 20 21 22 22 21 20 19 18 16 16 16 17 16 17 17 17 18 17 18 18 19 21 22 23 25 26 27 26 28 27 28 28 28 28 29 28 29 28 29 31 31 29 33 30 31 35 32 31 34 33 36 36 36 29 31 32 35
20 20 20 19 19 18 17 16 16 16 16 16 16 15 15 15 15 14 14 15 15 16 16 17 17 18 19 19 20 20 21 22 22 22 20 20 18 16 16 16 16 16 15 15 15 16 18 18 19 21 22 22 23 23 24 26 26 26 28 27 28 29 30 30 29 31 30 29 30 34 30 35 33 29 31 31 32 30 28 34 37 38 35 32 31
20 20 20 20 18 18 17 16 16 16 16 16 16 15 15 14 14 15 14 15 15 15 15 16 17 18 19 20 20 20 21 21 21 21 21 21 21 16 15 16 16 16 15 16 16 18 18 19 20 20 17 17 11 14 15 16 26 28 27 27 28 28 29 30 31 31 31 31 32 31 34 34 33 34 35 32 32 34 36 33 35 33 34 37 34
21 21 20 20 19 19 18 16 17 17 16 16 16 15 15 14 14 14 15 15 15 15 15 16 17 18 18 19 19 20 21 20 20 20 16 19 20 19 16 15 15 15 16 16 17 18 19 19 19 15 14 15 14 17 17 17 18 22 27 26 28 27 28 30 31 31 32 34 33 35 36 36 36 34 36 34 33 33 33 32 35 35 33 34 34
21 20 21 20 20 19 19 18 17 17 16 16 15 15 15 15 15 16 15 15 14 14 15 17 17 17 19 19 19 20 22 20 19 18 20 18 18 19 17 14 13 15 16 16 17 19 19 20 19 17 18 17 22 16 18 19 19 21 22 21 17 22 22 30 30 30 33 34 35 34 33 34 34 35 36 36 32 33 32 33 34 35 34 35 41
22 22 21 21 20 20 19 19 18 18 16 16 16 16 15 15 15 15 15 14 14 14 15 15 16 16 17 19 19 20 20 16 17 19 19 21 17 21 17 13 13 15 15 16 17 18 19 20 20 19 21 23 24 26 24 21 21 22 23 24 19 13 12 21 27 29 30 33 34 32 32 33 36 36 35 34 35 33 34 34 35 34 35 34 35
22 22 21 21 21 19 19 19 19 17 17 17 16 16 16 16 16 15 15 14 14 14 14 13 14 15 17 18 18 19 20 15 17 18 19 20 21 19 17 13 13 14 15 15 16 16 17 19 22 20 22 17 23 27 28 28 21 22 22 20 18 18 17 18 16 18 27 32 31 33 32 34 37 38 36 38 38 39 37 35 33 33 34 36 36
22 22 22 21 21 20 20 19 19 18 17 17 16 17 16 16 15 14 14 14 14 14 13 14 13 14 15 15 17 18 20 14 16 19 19 21 21 20 15 13 12 14 15 15 15 16 16 19 20 21 22 21 23 28 28 29 28 26 25 26 27 25 19 19 18 20 21 29 30 34 36 33 39 36 36 33 37 40 41 39 35 34 36 38 33
22 22 22 22 21 20 20 20 19 19 18 17 17 17 16 15 14 13 13 13 13 14 14 13 13 13 13 14 16 17 19 15 16 19 19 22 23 20 10 10 13 12 15 15 15 17 17 19 18 20 22 21 23 24 26 29 28 27 27 27 28 27 28 27 29 28 31 30 32 33 35 34 32 35 37 36 36 38 38 40 38 37 41 38 37
23 22 22 21 21 20 21 20 19 19 19 18 18 17 15 14 14 14 13 14 14 14 14 14 13 13 12 13 15 17 19 15 16 18 19 21 24 18 15 12 14 13 15 18 14 16 16 18 17 19 22 20 19 22 22 26 27 27 28 28 28 28 28 20 17 18 23 26 27 30 30 30 27 31 32 32 31 29 32 35 31 31 33 34 36
23 22 22 21 21 21 21 21 20 20 19 19 18 16 16 15 14 14 14 14 14 14 14 14 14 14 12 12 13 16 17 15 14 17 18 22 19 20 15 16 15 15 15 17 16 16 14 16 16 20 21 22 21 23 23 21 27 28 28 29 31 30 31 29 22 20 19 20 23 25 26 26 27 29 29 31 31 30 31 31 31 28 30 31 32
24 23 22 22 22 21 21 21 20 20 19 19 17 16 14 14 14 13 13 13 14 13 14 14 14 15 14 14 13 13 16 14 13 13 17 19 21 20 17 17 16 17 17 18 17 17 16 15 16 20 23 24 20 23 25 25 27 28 28 31 32 31 31 30 29 29 23 23 23 24 25 26 27 26 26 27 29 28 29 33 31 29 29 27 32
24 24 23 22 22 21 21 21 20 19 19 18 16 15 14 14 14 13 13 13 12 12 12 13 13 13 14 14 7 10 13 13 10 11 14 16 21 20 19 19 17 19 20 18 17 17 16 12 15 18 19 22 21 23 25 25 25 27 29 31 33 33 33 32 31 33 37 35 33 31 29 27 32 28 30 28 29 27 29 29 28 27 29 26 29
25 24 23 23 21 22 20 20 19 19 19 17 16 15 14 14 12 12 12 13 13 13 12 12 12 12 11 12 13 13 12 13 14 9 11 12 16 22 18 20 20 20 21 21 19 17 16 19 14 14 19 19 22 23 25 25 24 26 27 30 33 35 36 33 29 31 34 33 31 27 29 29 28 28 28 28 31 29 28 26 27 28 29 27 26
25 24 24 23 22 22 21 20 20 18 17 16 15 14 13 13 11 11 11 12 12 11 11 11 11 11 10 9 11 10 11 11 12 7 8 9 11 13 18 19 21 22 24 21 20 19 19 20 20 15 18 21 21 23 24 25 22 24 25 31 32 34 31 27 28 22 32 28 27 28 28 28 30 30 28 29 29 28 28 25 26 26 29 30 28
25 24 24 23 23 22 21 20 18 17 17 16 15 14 14 13 13 13 13 12 11 10 9 10 10 9 10 9 8 10 9 7 11 7 4 7 7 9 15 17 19 22 21 22 21 20 20 21 21 18 19 23 25 24 25 23 24 22 25 23 30 30 31 25 25 32 31 29 29 27 28 31 32 32 32 30 30 30 28 27 27 28 25 24 27
25 25 24 24 22 21 20 19 17 16 16 15 15 14 13 12 12 12 13 12 12 11 10 9 9 9 8 8 9 12 15 13 7 11 3 6 6 7 7 11 10 18 20 21 20 21 21 21 21 17 23 25 25 24 23 25 18 19 24 25 25 30 26 23 29 31 32 27 26 28 30 30 33 35 34 33 31 29 29 28 28 27 25 24 24
26 25 23 23 23 22 21 19 17 16 16 15 15 14 14 14 13 13 13 13 13 12 11 10 10 9 9 9 9 11 14 15 9 7 8 5 8 7 9 10 10 15 20 20 20 21 22 22 23 23 24 24 24 22 20 18 19 21 21 22 25 21 23 31 28 32 28 27 25 28 30 30 31 33 34 34 33 32 30 29 28 25 25 25 24
25 24 24 23 22 22 20 19 19 17 16 15 15 15 13 13 12 11 11 10 10 10 9 9 8 9 8 8 9 9 11 12 12 10 5 8 8 10 12 8 10 12 18 20 18 21 17 19 21 23 25 25 22 17 15 17 21 19 19 21 21 27 29 29 32 30 33 29 27 27 28 28 29 30 31 30 30 28 29 30 27 25 25 25 20
25 25 25 23 23 23 21 20 19 18 16 16 15 14 14 13 12 12 11 10 9 8 8 9 8 9 8 8 8 9 9 12 13 15 11 11 10 12 12 10 11 14 16 14 10 15 17 21 24 23 19 18 22 23 23 25 19 18 18 21 28 29 29 30 30 32 33 31 27 28 27 28 31 30 27 27 28 29 32 33 32 30 34 31 29
25 24 24 24 21 22 20 20 19 17 15 16 15 14 13 11 10 11 11 9 8 8 8 8 7 9 8 7 7 8 10 12 14 15 17 18 19 18 19 19 12 12 18 19 17 22 26 25 25 24 16 15 13 12 15 18 22 26 27 29 29 28 29 29 31 31 30 32 30 28 26 28 27 27 30 31 31 29 29 30 29 26 24 26 23
26 25 25 22 21 21 21 12 17 18 16 16 15 14 12 12 13 11 10 9 10 11 9 7 8 7 7 8 7 7 10 12 15 15 15 18 19 20 19 19 20 21 21 22 25 27 28 18 19 19 21 22 23 23 24 25 25 25 28 30 30 27 26 20 20 28 29 30 30 27 27 30 31 28 28 30 30 29 30 31 30 29 26 27 39
23 24 23 23 21 20 20 21 19 18 16 15 14 13 10 9 12 15 15 14 15 14 10 9 8 7 8 9 9 8 10 12 14 5 11 5 8 16 19 19 21 22 17 17 23 26 24 21 20 22 22 19 22 25 26 26 25 27 26 27 28 28 30 30 33 33 32 32 32 33 32 30 28 26 25 30 31 30 29 30 30 29 29 29 34
24 25 23 21 21 20 20 20 18 18 17 16 15 15 11 14 14 14 15 9 13 10 9 13 12 12 10 10 11 11 11 12 6 6 5 7 9 9 10 13 15 18 18 21 17 23 23 18 20 21 21 22 23 22 24 25 25 26 27 19 28 28 30 29 32 33 30 29 31 29 31 28 28 27 26 28 30 28 29 25 30 30 30 33 37
25 24 22 20 20 20 20 19 17 18 18 16 15 15 14 15 12 15 12 8 10 11 11 10 9 7 9 10 10 8 8 9 8 6 5 8 10 12 13 15 17 19 21 17 20 21 19 18 19 18 19 22 20 21 22 23 23 23 25 25 27 25 24 28 32 28 27 28 26 26 29 27 30 26 26 27 30 30 28 26 27 29 30 29 34
24 22 20 20 19 18 20 19 17 17 18 17 18 17 18 18 15 7 12 13 10 9 8 6 6 7 6 7 7 9 10 7 6 6 7 10 11 13 15 16 18 18 21 12 16 18 15 17 18 18 20 19 19 19 21 22 22 23 23 25 26 23 25 25 24 30 30 31 29 25 29 26 30 25 25 24 27 30 30 30 31 29 29 28 30
22 20 20 21 22 18 19 19 17 17 17 18 17 19 20 20 20 19 13 6 9 11 10 10 9 8 8 9 10 9 8 9 10 11 11 11 13 15 16 19 19 21 16 16 17 15 15 18 20 20 20 19 22 22 24 23 24 23 24 25 26 25 29 26 22 29 25 28 27 27 28 25 28 27 24 24 25 31 30 31 29 30 27 28 29
20 21 20 21 22 20 18 19 18 17 16 18 17 18 19 20 21 21 21 19 16 8 8 10 11 10 10 11 11 12 13 11 12 12 13 13 15 16 15 20 21 27 20 17 16 14 18 18 19 20 21 21 22 22 20 23 24 24 23 26 27 27 28 30 30 30 27 27 28 28 27 29 28 28 25 27 25 23 28 27 29 29 31 30 30
20 14 15 16 21 21 18 19 19 17 17 16 16 16 14 17 18 22 22 22 21 21 21 20 15 15 19 14 14 15 14 15 14 14 14 14 16 16 14 21 21 20 15 12 13 16 17 17 18 19 20 20 21 21 22 23 25 24 25 26 26 27 28 28 27 30 30 29 28 29 27 26 30 27 24 27 28 26 26 28 27 28 28 26 27
21 20 20 19 20 20 19 17 18 18 17 16 16 15 14 14 15 20 18 19 19 21 21 24 24 16 23 17 14 15 16 16 15 15 15 15 16 9 14 18 18 17 15 14 14 15 16 16 17 17 19 19 20 21 22 23 23 25 25 26 23 26 27 27 25 27 26 28 25 25 23 28 27 28 26 27 28 25 22 24 26 25 24 25 24
22 21 21 21 19 19 19 18 17 17 11 14 15 16 14 14 14 15 16 17 16 16 17 18 23 20 14 16 15 13 16 15 17 17 16 16 14 12 20 22 21 18 14 14 14 15 16 16 16 17 17 19 19 20 20 21 23 23 18 25 26 26 26 25 26 22 27 28 27 25 24 27 24 25 26 29 30 27 24 22 21 24 24 25 19
21 21 22 22 19 16 18 18 17 9 14 15 15 15 15 15 15 14 13 13 13 12 13 13 13 20 23 24 18 17 18 15 15 11 10 11 12 15 21 22 20 19 16 14 13 14 15 15 15 16 16 17 18 19 20 21 22 22 23 24 22 21 17 19 17 21 19 24 27 26 27 28 27 27 26 26 26 26 23 22 23 20 22 24 23
21 15 16 18 12 19 17 16 17 18 17 16 16 15 14 15 15 15 15 15 14 13 13 13 14 16 20 20 23 17 19 20 17 18 18 19 19 21 21 19 17 17 13 14 13 13 14 14 14 15 15 16 16 18 19 19 20 20 22 20 21 21 23 24 24 23 25 26 26 27 28 29 28 28 27 28 25 24 23 21 23 21 19 22 23
21 19 16 20 18 18 17 16 16 18 17 18 18 16 16 16 15 15 15 15 14 13 15 15 16 15 13 14 21 23 22 20 16 16 15 14 14 17 17 15 13 13 13 13 13 13 12 14 14 14 14 15 17 17 18 18 18 16 17 18 20 21 22 21 23 24 25 25 25 26 27 26 27 26 26 27 27 25 24 24 22 21 20 17 19
21 20 13 15 14 19 17 16 17 17 17 18 17 17 17 16 16 15 16 15 15 14 15 15 16 15 13 15 18 19 19 17 17 15 15 14 13 13 14 14 13 13 13 13 12 12 12 13 13 14 14 15 16 16 16 17 13 15 15 16 17 19 20 18 19 21 22 21 23 25 26 26 26 25 27 26 18 22 24 23 22 22 20 19 16
22 21 22 22 19 18 19 19 17 16 15 16 19 18 16 16 17 17 16 16 15 15 15 16 16 18 13 19 22 25 19 16 16 17 17 17 16 15 14 13 14 13 13 13 12 12 12 12 12 12 11 10 11 11 12 14 13 13 14 15 16 17 18 20 20 18 19 22 21 22 23 24 24 23 23 15 24 24 25 26 24 21 24 23 19
21 20 22 21 23 23 21 20 20 19 19 19 18 13 16 17 17 17 18 17 17 16 15 16 16 17 14 15 19 19 16 16 10 18 18 18 18 15 14 15 15 14 13 12 12 12 11 9 9 10 10 10 13 11 12 12 12 12 12 12 14 15 16 18 18 18 19 20 21 17 16 20 22 22 23 22 23 23 22 21 21 22 22 21 20
21 20 18 20 21 22 21 21 21 19 19 15 15 17 17 18 18 17 17 17 19 20 20 19 17 18 14 16 12 17 17 17 18 19 19 18 19 16 18 16 14 14 13 13 12 12 10 9 9 10 13 14 14 13 12 12 11 11 11 12 11 12 14 15 16 17 18 20 20 20 20 19 20 21 20 20 21 21 21 18 19 20 20 21 19
20 21 19 21 21 21 23 21 20 20 18 16 19 21 18 20 19 20 20 20 18 18 19 18 18 18 18 17 20 20 19 20 17 17 18 18 17 17 16 16 14 14 14 12 12 13 11 10 9 9 9 11 13 14 15 15 14 11 10 10 10 11 11 12 13 14 15 15 19 19 20 21 21 21 22 22 18 18 21 19 19 14 18 16 17
20 19 20 19 19 19 19 21 19 20 20 21 21 22 21 22 22 21 20 20 19 19 19 19 19 19 17 19 19 19 20 19 19 18 18 19 16 16 16 15 14 14 11 11 10 11 10 10 10 11 11 11 12 15 15 14 16 15 13 12 8 6 8 9 11 13 13 13 17 18 18 18 18 18 15 20 20 20 18 16 16 18 17 15 14
20 19 19 19 20 19 19 18 21 22 22 21 21 22 21 22 22 21 19 22 20 18 20 20 20 19 20 21 21 21 20 19 19 16 18 18 17 16 16 14 13 12 12 11 10 11 10 11 12 11 11 12 12 15 16 16 16 16 14 13 11 6 9 8 10 11 11 13 14 15 16 17 18 18 17 19 17 18 15 18 18 16 17 16 15
21 21 20 19 20 20 20 20 20 14 20 21 21 21 20 21 21 21 21 21 23 24 23 21 21 21 20 20 19 19 19 19 19 19 20 19 19 18 17 16 14 16 14 13 12 12 12 12 11 11 11 10 10 13 15 17 16 16 14 15 10 8 9 7 8 13 10 12 13 13 12 14 16 17 17 16 15 17 17 19 18 20 17 15 15
19 21 21 21 20 20 20 21 20 22 22 21 21 22 21 22 22 22 21 22 22 21 22 23 24 23 23 22 21 21 20 18 20 20 20 20 20 20 20 19 12 13 15 15 14 13 13 14 12 14 13 13 13 14 14 17 17 17 16 15 12 12 12 10 6 10 9 12 12 13 12 11 11 13 15 13 16 16 17 14 16 18 17 13 13
21 19 19 20 21 21 20 20 21 22 21 22 23 22 22 22 23 22 23 23 22 22 23 22 22 22 22 22 21 22 22 21 21 21 20 21 21 20 21 20 16 12 15 15 16 16 16 15 13 13 13 13 14 14 15 15 18 17 18 12 13 13 12 12 9 10 9 8 10 12 15 12 11 12 14 14 13 12 13 15 14 15 16 12 12
22 22 20 20 20 20 22 22 22 22 22 22 22 22 22 22 22 22 23 23 24 23 22 22 22 22 22 22 20 21 21 21 21 21 22 22 22 21 22 19 17 15 16 14 16 17 17 16 17 14 13 13 15 17 17 17 15 15 13 11 15 14 14 13 12 10 11 8 8 11 14 12 10 12 13 14 14 13 14 14 14 14 15 15 13
Wind_Speed
9 7 6 7 8 8 8 7 8 8 8 7 7 6 6 6 5 5 5 5 5 5 6 6 7 7 7 7 7 6 6 6 5 5 4 5 5 5 6 6 6 5 5 6 6 6 7 8 8 8 8 7 7 7 7 8 8 7 7 7 7 7 8 9 11 13 10 9 10 11 14 15 13 14 16 15 15 14 16 15 15 13 11 11 13
9 8 7 8 8 8 8 7 8 7 7 7 7 7 6 6 5 5 6 5 6 7 7 5 6 7 8 8 7 7 7 7 5 4 5 5 5 4 5 6 6 5 5 7 7 6 6 6 7 6 6 6 6 7 6 7 8 8 8 8 8 8 8 9 11 12 15 12 12 11 11 13 14 13 14 15 15 15 16 15 12 14 14 13 13
10 8 9 8 9 8 8 8 8 8 8 6 7 7 6 6 6 6 6 5 5 6 7 7 8 8 8 8 8 8 8 6 5 5 5 5 6 4 5 5 5 5 6 7 7 5 6 6 7 6 5 6 6 5 6 7 8 9 10 8 9 9 9 9 11 13 14 14 13 14 12 11 12 14 15 13 14 14 16 14 14 13 13 14 13
10 10 9 9 9 9 8 8 8 8 8 6 7 6 6 5 6 6 6 4 6 5 7 8 8 8 8 8 9 8 8 7 6 5 6 6 6 6 5 5 5 6 7 6 6 6 5 5 6 6 6 6 7 7 7 8 9 9 9 8 8 9 9 9 10 10 11 14 13 14 12 13 12 13 12 13 14 13 13 14 14 15 15 13 13
10 10 10 10 10 8 8 8 8 8 7 6 7 6 6 6 5 7 5 6 6 5 7 8 8 8 8 9 9 9 8 8 8 8 5 4 5 5 6 6 6 6 6 6 6 5 5 5 7 6 6 6 6 6 7 9 9 9 9 9 9 8 8 9 10 10 11 13 12 11 11 12 12 12 13 14 13 13 12 14 13 14 14 13 13
10 10 9 9 9 9 9 8 8 8 8 7 7 6 6 6 6 5 7 7 7 7 7 7 8 9 9 9 9 9 9 8 9 9 8 7 5 5 5 5 5 4 4 4 4 5 5 4 6 6 6 6 6 6 7 9 9 9 9 9 9 9 9 9 10 10 11 11 13 13 11 13 13 10 13 14 14 15 14 13 13 12 13 14 13
11 10 10 9 10 9 9 8 8 7 7 6 6 6 6 6 7 7 6 7 6 7 8 8 7 9 9 8 9 9 9 9 8 9 9 9 8 4 4 4 3 3 3 4 5 4 5 5 6 5 5 6 6 6 7 9 8 9 9 8 8 9 10 10 10 10 11 12 12 12 12 10 11 14 13 15 16 14 16 16 14 12 12 13 15
11 11 10 9 9 9 8 8 8 7 7 7 7 7 7 6 6 6 6 7 7 8 8 8 7 8 8 8 8 8 8 9 8 8 8 8 8 6 4 3 3 3 4 4 5 5 5 5 4 5 5 5 5 5 8 9 8 9 8 7 8 9 9 9 10 10 11 11 11 12 11 13 13 12 12 14 14 14 13 15 17 17 15 13 13
11 11 10 10 9 9 8 7 7 8 8 8 7 7 7 6 6 6 6 6 6 7 8 8 8 8 8 8 8 8 7 6 6 6 7 8 7 7 6 3 3 3 3 3 5 5 4 6 4 4 9 8 6 11 11 9 8 9 8 8 9 9 9 8 9 9 10 10 11 11 12 13 13 14 14 14 15 16 15 15 15 15 16 17 16
11 11 10 10 9 10 9 8 8 8 8 8 7 7 7 6 6 6 7 6 6 7 8 8 8 8 8 8 7 6 6 5 8 11 8 5 6 6 7 3 3 3 3 3 4 3 4 4 6 12 11 9 11 13 14 14 13 10 10 10 10 8 7 9 9 10 10 11 11 12 13 13 13 12 14 15 14 13 14 13 16 17 17 17 16
10 10 11 10 10 9 9 9 8 9 8 8 7 7 7 6 7 7 6 6 6 7 7 8 7 7 7 7 7 6 6 6 13 13 13 12 7 6 6 2 3 3 3 3 3 2 3 4 3 7 8 7 8 12 14 15 16 17 18 17 13 8 6 9 9 9 10 11 11 12 13 15 16 15 13 14 13 13 13 13 14 14 13 15 17
11 10 10 10 10 10 9 9 9 9 8 8 8 8 7 7 7 7 6 6 6 6 7 7 7 6 6 7 7 6 6 10 13 14 14 15 11 6 6 2 3 3 3 3 2 3 4 3 4 3 5 5 7 8 12 15 16 18 18 20 17 11 8 7 7 9 10 11 12 12 12 13 14 13 14 15 15 15 14 13 13 13 14 15 15
11 11 10 10 10 9 9 9 9 8 8 8 7 7 8 8 7 7 7 6 5 5 6 6 6 6 7 7 7 6 6 10 12 14 14 15 15 10 5 3 3 2 3 3 3 4 4 4 4 3 5 10 8 9 10 11 15 17 16 16 16 15 13 11 4 6 8 10 11 12 11 13 14 14 15 17 17 17 16 14 13 13 14 15 15
10 11 11 11 10 9 10 9 9 9 8 8 7 8 8 8 7 6 6 5 5 5 5 5 5 6 6 6 6 5 6 8 13 14 14 16 16 12 5 2 2 1 4 4 3 5 3 4 3 3 5 5 7 11 10 10 11 11 10 10 10 13 12 12 11 11 9 8 10 12 11 10 12 15 17 16 17 17 17 17 16 16 15 15 17
10 10 10 10 10 10 10 10 10 9 8 8 8 8 8 7 7 6 5 5 5 5 5 4 5 5 6 6 5 6 6 11 13 15 15 16 18 13 4 3 3 2 4 4 3 5 3 3 3 4 5 5 7 11 10 10 10 9 10 10 10 11 9 8 9 8 8 8 9 11 10 10 12 14 15 15 15 15 15 18 19 18 17 17 17
11 10 10 10 10 10 10 10 9 9 9 8 8 8 6 6 6 5 5 5 5 5 4 4 4 5 5 6 5 6 6 12 13 14 15 17 16 9 5 5 4 5 4 4 4 3 3 3 3 3 3 5 10 14 12 10 10 11 11 10 11 10 9 10 13 12 9 9 10 11 9 11 15 15 16 16 15 15 15 15 14 14 15 13 13
11 10 10 10 10 10 10 10 9 9 9 9 8 7 7 7 5 4 5 5 5 5 4 4 3 3 4 5 6 5 5 8 11 13 14 15 12 8 5 6 5 6 6 3 3 3 2 2 2 2 4 7 12 14 15 14 10 11 11 11 11 10 10 10 13 15 15 16 19 17 13 17 18 20 21 23 18 18 16 15 13 13 13 13 14
11 11 10 10 10 10 10 10 9 9 9 9 8 7 6 5 5 5 5 5 5 5 5 5 4 4 4 4 4 6 4 5 9 10 12 14 12 8 6 6 6 7 7 7 5 3 2 6 4 2 7 9 13 14 17 12 10 11 11 12 12 12 12 11 10 11 17 16 17 13 14 16 19 20 20 21 22 19 15 16 16 15 14 11 14
11 11 11 10 10 10 9 9 9 9 9 8 7 7 6 5 5 4 4 4 5 5 5 5 5 4 4 3 4 6 4 4 7 8 9 10 10 7 5 6 6 7 6 7 7 4 1 4 4 9 9 11 14 15 17 14 10 10 11 11 11 12 13 14 14 14 13 11 8 9 11 15 15 15 16 22 22 20 16 16 15 14 13 11 13
11 10 10 10 9 9 8 9 8 9 9 7 6 6 5 5 4 4 4 4 4 4 4 4 5 5 4 3 3 3 4 3 4 5 6 7 8 7 5 5 7 6 7 7 7 5 5 5 3 10 14 14 16 17 17 18 13 11 10 9 10 14 14 14 14 14 12 10 11 11 12 14 15 15 15 16 16 17 16 14 14 14 14 14 13
12 11 10 10 10 10 8 8 9 8 7 7 6 6 5 4 4 4 3 4 4 4 4 3 3 3 4 4 4 3 3 4 3 3 3 4 6 4 4 4 4 5 6 7 6 6 6 5 5 10 14 16 18 19 19 18 17 10 9 8 10 15 17 12 14 15 10 12 11 11 12 14 15 15 14 15 15 15 15 14 15 14 14 14 14
11 11 11 11 10 10 9 9 8 7 7 6 6 5 4 3 3 3 4 4 4 4 4 4 4 3 3 3 3 5 3 5 3 2 2 5 5 4 2 3 4 5 6 6 6 6 6 6 6 10 16 19 20 20 19 18 19 10 10 14 18 20 15 11 9 10 11 11 11 11 13 14 15 15 15 15 15 16 15 14 15 16 14 12 14
12 12 11 11 10 10 9 9 7 6 6 6 6 6 4 4 4 5 5 4 3 3 2 3 3 3 4 4 3 7 5 4 2 2 1 5 5 5 6 4 7 5 5 6 6 6 6 7 8 14 17 19 19 20 18 18 13 10 16 17 18 22 15 7 11 10 11 11 11 12 14 14 15 16 16 16 16 16 15 15 16 16 14 13 14
12 11 11 11 11 10 10 9 7 7 7 7 6 5 4 4 4 4 5 5 5 4 4 4 3 4 4 4 4 6 6 4 2 5 2 4 6 6 7 6 6 5 5 5 4 6 7 8 10 16 18 19 20 18 16 13 11 17 16 16 17 15 9 10 10 11 11 11 12 13 13 13 14 15 16 16 17 17 16 16 16 14 14 13 13
11 11 12 12 10 11 9 8 8 7 7 6 6 5 5 4 4 4 4 5 5 4 4 3 3 4 2 3 4 4 5 6 4 4 4 7 5 9 10 5 6 8 6 4 4 6 9 14 16 17 18 19 18 13 10 10 14 14 16 15 13 9 9 10 11 11 11 12 13 13 13 13 14 14 15 15 16 15 15 15 15 14 14 14 12
12 13 12 11 11 12 10 10 9 8 7 6 5 5 5 5 4 3 4 3 2 3 4 4 3 3 2 2 3 4 4 4 3 3 4 5 5 9 10 9 9 11 10 4 8 13 15 17 19 17 16 13 7 5 5 8 13 14 15 14 9 9 9 10 11 11 11 12 13 13 13 13 14 14 14 14 14 15 16 16 16 15 17 15 15
12 11 11 11 10 11 10 8 8 7 6 5 5 5 4 4 4 3 2 2 2 2 3 3 3 3 2 2 2 3 5 4 4 3 3 3 4 5 6 6 8 8 7 5 8 9 14 14 14 18 13 12 9 9 8 10 9 9 8 8 9 9 9 9 9 10 10 11 12 12 12 13 12 12 14 15 16 15 15 15 14 14 14 12 11
12 12 13 10 9 10 9 10 9 6 6 6 5 4 4 3 3 1 1 1 1 3 3 1 2 2 4 2 1 3 5 5 3 3 3 2 3 4 4 5 4 5 6 6 8 10 10 12 14 6 5 4 4 4 5 6 7 7 8 8 9 9 11 12 12 10 10 11 11 12 12 13 13 12 12 14 15 14 14 14 15 14 14 14 16
12 13 11 10 9 9 8 8 7 6 6 5 3 1 1 3 4 6 4 4 4 4 2 4 3 3 2 2 1 1 4 4 3 3 0 1 1 3 4 5 5 6 7 8 8 9 8 8 8 6 4 4 5 5 6 7 6 7 8 8 9 9 9 8 10 10 11 12 13 12 13 14 13 11 11 13 15 15 14 14 15 14 14 13 14
12 11 10 10 10 9 8 7 7 6 6 6 7 5 7 11 8 6 4 5 10 9 8 4 3 3 4 5 4 4 3 3 6 6 4 4 5 7 8 10 10 8 9 12 7 6 8 7 8 5 5 4 5 5 6 6 6 6 6 8 9 9 9 9 10 10 10 11 11 11 13 13 14 13 11 12 13 14 15 14 14 14 14 15 15
10 10 10 9 10 9 8 6 6 6 6 5 7 7 6 7 10 13 10 6 9 10 9 8 7 6 4 2 4 7 8 8 7 5 4 5 6 8 10 11 12 12 8 7 8 6 7 7 5 4 4 5 4 5 5 5 6 6 6 6 8 8 7 9 10 8 9 10 11 10 11 13 13 13 12 12 12 13 14 13 12 13 14 14 14
10 9 9 9 9 9 8 7 6 6 6 5 6 6 5 5 3 5 5 10 9 8 7 6 6 6 3 2 1 2 3 5 6 6 6 7 9 10 12 12 13 13 11 1 4 8 6 6 4 4 5 4 4 5 5 5 5 5 5 7 7 6 7 9 10 9 10 10 10 10 12 12 11 12 12 13 12 11 12 14 14 14 14 13 13
11 9 9 10 8 9 8 6 6 7 7 6 6 6 6 6 5 3 0 5 4 2 2 4 5 5 4 4 4 4 4 3 5 6 8 10 10 10 12 13 13 14 11 5 4 6 6 6 5 4 4 5 5 5 5 6 6 5 5 6 7 7 8 10 9 9 9 9 9 10 11 12 11 12 10 12 13 11 11 13 13 13 13 13 14
10 8 9 10 9 8 7 6 6 6 6 7 6 8 8 7 7 7 6 3 1 2 4 6 6 5 6 7 7 8 8 9 10 10 9 10 11 11 7 10 15 17 10 8 4 4 6 5 4 3 3 4 4 5 5 5 5 5 5 6 7 7 9 10 9 9 9 9 9 9 11 11 11 11 11 11 12 11 10 10 12 13 13 13 13
9 9 13 10 7 6 7 7 6 5 6 7 6 7 7 9 9 8 8 8 8 7 7 7 9 11 10 9 10 11 11 11 11 11 12 11 12 7 7 7 7 8 7 4 6 3 3 4 3 3 3 3 4 4 5 5 5 5 6 6 7 7 8 9 8 9 9 9 9 9 9 11 11 10 11 10 12 13 11 10 11 12 12 12 13
9 7 9 11 7 5 4 7 6 6 5 5 5 5 4 4 8 9 8 9 8 8 7 8 9 12 16 12 11 11 11 12 12 12 12 12 9 2 3 5 5 6 8 4 2 2 2 3 3 3 3 3 3 4 3 4 4 5 5 6 6 7 8 8 8 8 8 8 9 10 10 10 10 10 11 10 12 12 11 10 10 11 12 12 11
9 8 8 9 8 6 5 4 7 7 6 5 5 5 4 4 4 7 8 9 9 8 9 8 6 5 6 7 10 11 11 11 13 12 10 9 6 2 5 6 6 7 8 4 1 2 3 2 3 2 3 3 3 3 3 4 4 4 5 5 6 6 6 6 7 6 8 8 8 9 9 10 10 9 11 11 11 11 11 9 9 9 10 13 12
7 9 8 8 7 8 7 5 5 7 7 5 5 5 5 5 6 4 3 4 5 3 3 5 9 7 9 11 11 9 9 10 7 7 9 8 5 4 7 7 8 7 8 5 1 1 3 2 2 2 3 3 3 4 3 4 5 4 5 5 4 4 8 7 7 8 7 7 8 8 9 9 9 8 10 10 10 10 12 11 8 9 8 10 10
5 11 13 12 8 7 8 7 6 6 6 5 5 5 5 5 5 4 4 3 4 4 3 2 5 8 9 8 6 8 7 5 5 7 6 6 5 7 7 7 7 8 7 3 2 2 3 2 2 2 3 3 3 4 4 4 4 4 4 4 4 4 5 5 6 7 7 7 8 8 8 8 9 7 9 9 10 10 10 12 9 8 8 7 8
7 5 11 16 9 6 3 5 6 7 5 6 4 4 3 4 4 5 4 4 4 3 4 4 4 3 4 8 8 7 8 8 6 6 6 6 7 8 8 8 6 4 3 2 2 3 3 1 1 1 2 3 3 3 4 4 4 3 3 3 4 4 5 4 5 6 7 7 7 8 8 8 9 7 8 9 9 9 10 10 10 8 8 7 6
8 6 8 11 10 8 5 3 4 6 6 6 5 4 4 5 5 3 4 5 5 4 4 4 4 4 4 6 16 14 9 8 9 7 4 4 4 4 5 5 4 4 3 3 3 3 2 1 1 1 1 1 2 3 3 3 3 3 3 3 3 3 4 4 4 5 6 6 7 8 8 7 8 7 9 9 10 9 9 9 9 8 7 7 7
8 6 8 8 8 8 7 6 5 6 7 7 7 6 5 4 4 5 5 3 4 4 4 4 4 5 5 15 19 20 11 6 4 3 4 5 4 5 6 4 5 5 4 3 3 3 1 1 2 1 0 1 2 3 2 3 3 4 4 4 3 2 3 3 4 5 6 6 7 8 7 7 8 6 8 8 8 9 9 9 10 9 8 7 7
8 6 8 8 8 7 7 6 5 5 6 7 7 6 6 5 5 5 5 6 5 5 5 4 3 3 5 12 14 17 7 5 4 4 3 5 5 4 4 5 4 3 5 6 4 3 2 2 1 0 1 1 1 2 3 3 3 4 4 4 3 2 1 3 4 4 4 5 6 7 8 7 7 6 7 8 7 8 8 9 10 10 9 8 8
8 7 8 9 9 8 7 6 6 5 4 6 6 6 7 6 5 4 6 7 7 7 5 5 4 5 3 6 5 6 5 4 4 5 5 5 6 6 6 5 5 4 3 2 2 1 1 1 1 1 0 1 2 3 3 3 3 4 4 4 4 2 1 1 2 4 4 4 5 6 7 7 6 6 6 8 7 8 8 8 9 10 10 8 8
8 9 8 9 9 8 9 8 6 6 6 4 5 5 6 6 6 6 6 4 4 5 7 7 7 6 5 5 7 7 6 6 5 5 5 5 5 6 7 6 6 4 3 3 3 2 1 1 1 2 3 3 3 3 3 3 4 3 4 5 6 2 1 1 0 2 2 3 4 5 6 6 6 6 7 7 7 7 8 8 8 9 10 9 7
8 8 8 8 9 8 8 8 8 7 7 6 5 6 6 7 6 6 5 6 5 5 5 5 6 7 7 6 7 9 8 7 6 6 6 7 6 5 5 6 5 4 4 4 4 5 4 3 2 2 3 4 3 3 3 4 5 4 5 5 5 2 4 3 1 1 1 2 3 4 5 6 5 5 7 7 6 6 7 7 8 8 8 8 7
7 7 8 7 7 8 8 8 8 7 8 7 7 7 7 7 7 7 7 7 6 5 4 4 4 4 6 7 7 7 9 9 8 7 7 6 6 6 6 6 5 5 4 4 4 4 5 5 5 5 5 5 4 4 5 4 5 4 5 5 7 2 5 3 2 1 1 1 1 3 4 5 5 4 6 7 6 6 7 7 7 9 9 8 6
7 7 7 7 6 6 7 7 8 9 8 7 7 7 7 7 6 6 6 7 8 8 7 6 6 6 6 5 5 6 7 8 8 8 7 6 6 6 5 5 5 5 5 5 5 6 6 6 6 6 6 6 6 5 6 5 5 5 5 7 4 3 6 6 3 2 2 1 1 2 4 5 5 5 5 6 5 6 6 7 8 8 8 8 6
7 8 7 7 7 7 6 7 7 7 8 8 7 7 7 7 7 6 6 7 6 7 8 9 8 7 6 5 5 5 5 5 5 6 6 7 7 6 6 7 6 5 6 7 7 7 7 7 7 6 6 6 6 6 7 6 6 5 5 6 3 9 10 9 5 4 5 2 2 2 2 3 4 5 5 4 5 5 5 5 6 7 8 8 6
6 7 7 7 7 6 7 6 6 7 7 7 7 7 7 7 7 6 7 6 6 6 6 6 6 7 8 8 8 7 7 6 6 5 5 5 6 5 6 7 7 6 6 7 7 6 5 5 6 6 6 6 6 6 5 6 6 7 6 7 8 10 10 10 9 9 6 4 3 2 2 3 4 5 5 4 4 5 5 5 6 7 7 7 6
8 6 6 7 7 7 7 7 6 6 7 7 7 7 7 6 7 7 7 7 7 7 6 6 6 6 6 6 6 6 6 7 7 7 7 6 6 6 6 5 6 6 6 5 4 5 5 5 5 6 6 7 7 7 6 6 6 6 8 10 10 11 11 10 7 9 10 7 4 3 3 4 4 4 5 4 4 4 5 6 6 6 6 6 4
Wind_Direction
127 133 134 119 116 110 114 122 121 115 103 94 91 87 86 86 83 82 83 75 73 69 68 65 53 53 56 48 48 47 46 42 34 31 40 47 37 36 34 34 40 39 31 39 37 39 38 40 37 28 24 22 11 2 3 358 347 339 340 338 331 331 328 322 314 312 312 320 320 322 322 320 322 327 321 321 321 325 324 314 309 309 311 314 318
128 130 114 109 113 122 118 113 108 109 109 106 101 96 91 84 82 77 73 72 71 65 62 59 66 60 52 48 46 43 41 38 34 30 34 41 46 38 38 39 35 36 44 36 42 27 38 47 37 41 25 17 18 3 358 351 346 341 341 337 331 329 329 325 322 319 318 324 320 321 315 325 317 323 319 320 324 322 317 317 318 321 321 314 309
131 129 124 127 124 118 113 110 112 109 105 104 102 104 103 100 95 87 76 68 69 75 67 59 55 57 57 51 44 40 37 32 26 34 34 40 38 38 43 42 34 36 42 45 39 32 30 43 43 24 25 19 13 354 356 354 347 343 336 333 329 328 334 336 328 321 319 319 320 319 322 320 316 317 318 317 316 315 316 320 323 318 311 309 303
135 132 127 126 122 117 113 113 109 107 105 98 95 88 85 83 87 90 92 88 78 69 71 69 61 53 55 53 46 41 35 24 23 25 39 39 37 30 38 37 38 38 42 39 37 34 26 37 42 28 26 16 1 356 355 353 345 340 332 330 331 335 337 336 327 319 319 318 322 321 320 318 318 318 316 312 315 318 318 317 316 312 312 314 326
135 133 131 128 122 117 115 111 106 103 100 100 99 97 95 93 91 85 79 73 66 70 72 72 67 60 53 50 50 44 35 28 19 9 14 48 37 38 29 42 35 38 41 32 34 24 20 39 48 27 20 15 354 353 354 348 343 337 333 335 336 339 334 328 324 319 318 316 316 317 318 316 316 314 317 318 318 315 315 313 315 315 315 324 322
136 133 129 126 123 120 116 114 113 111 107 104 102 102 99 95 91 90 89 88 83 74 67 57 61 62 56 53 49 47 41 31 21 10 359 8 50 41 37 49 52 35 43 50 36 34 5 26 53 34 15 10 354 352 358 345 341 338 336 340 338 334 327 324 323 320 318 316 320 321 322 320 318 315 320 321 320 317 315 313 311 314 319 314 311
136 133 133 129 127 126 123 120 117 113 108 107 109 103 99 98 96 94 97 99 97 89 78 71 63 62 59 53 49 45 45 36 24 9 2 359 352 37 37 40 47 50 34 54 36 38 18 12 47 28 19 1 9 11 354 349 341 338 337 332 328 327 327 328 326 325 325 323 321 317 315 317 319 318 325 325 319 319 318 317 313 315 310 312 310
139 137 136 132 128 122 120 121 119 115 110 104 96 93 90 85 82 81 83 80 82 87 87 84 76 66 61 58 51 50 44 36 23 10 2 354 347 344 57 23 38 28 39 45 47 33 26 7 43 27 29 15 40 12 3 347 340 334 329 319 320 319 323 327 331 331 327 323 320 321 324 324 322 319 320 322 321 319 322 318 314 316 314 311 311
139 138 133 130 128 124 120 115 114 114 113 108 103 103 103 104 100 90 77 71 71 81 88 86 82 77 68 58 54 47 42 33 26 4 352 351 349 340 341 32 29 36 31 45 57 40 20 9 18 52 18 33 54 23 0 346 340 333 321 318 312 315 316 323 329 324 324 323 322 326 325 324 325 324 325 326 324 320 318 315 309 309 310 308 305
139 137 135 129 127 129 127 127 120 115 115 114 111 107 102 94 92 90 87 83 78 78 83 81 77 77 73 67 61 51 36 30 6 17 22 2 334 341 324 349 38 20 21 42 66 58 33 31 359 7 21 16 31 15 354 344 340 328 318 315 311 306 308 321 324 324 323 326 332 331 327 325 323 322 319 317 315 313 312 314 311 312 307 300 297
138 138 135 136 133 132 130 125 127 121 114 118 123 115 103 96 91 92 90 89 89 89 85 82 79 77 75 68 63 53 35 16 5 11 4 9 2 335 319 327 32 21 10 25 55 43 42 39 9 4 5 14 21 11 352 345 339 335 325 314 305 291 302 320 322 332 337 334 330 326 320 317 321 322 316 315 314 312 309 305 301 303 302 303 301
140 139 137 135 136 132 130 128 124 125 126 120 116 118 118 113 108 104 103 99 96 95 90 90 88 83 77 70 59 51 38 11 11 7 6 359 4 340 312 323 33 36 337 8 21 55 41 20 14 13 359 6 34 4 351 342 339 333 325 315 307 295 301 311 327 345 340 331 323 320 317 319 321 323 320 319 317 313 308 302 299 299 297 294 291
142 139 140 137 133 134 131 131 129 125 120 117 116 114 108 106 101 99 97 96 91 88 96 103 103 95 82 69 62 49 34 14 10 12 5 0 354 347 313 331 24 33 350 1 6 55 46 10 10 360 3 358 25 1 349 341 336 330 320 321 325 331 333 330 352 343 324 320 315 312 321 326 327 326 322 316 314 308 308 304 301 296 290 287 285
141 141 140 136 136 135 133 131 125 121 121 120 116 111 109 107 108 102 100 93 92 97 96 94 96 89 82 79 67 51 37 7 15 11 8 359 352 339 287 310 17 345 27 350 344 80 43 22 360 354 8 5 22 357 344 339 333 326 329 331 326 323 329 326 324 315 313 310 307 306 313 331 323 318 314 311 309 306 306 303 302 296 292 284 284
145 142 136 138 138 136 134 128 126 128 126 119 113 110 113 120 120 121 118 115 112 104 93 84 83 87 88 86 77 54 32 17 18 13 6 2 351 341 302 355 359 9 54 350 345 85 39 27 1 22 10 12 2 345 340 334 327 325 328 331 324 314 315 321 316 312 307 305 300 296 300 315 316 310 308 305 300 296 295 296 297 294 289 283 278
142 139 140 141 139 137 134 132 128 125 121 120 121 121 120 110 104 101 96 93 91 95 95 93 93 99 102 95 85 62 35 20 18 14 9 5 353 340 346 352 7 340 48 9 344 76 41 34 41 41 13 13 348 340 334 334 328 328 328 326 321 312 313 317 309 300 290 292 295 290 290 308 311 307 305 304 302 300 296 294 292 285 284 284 282
143 141 141 140 139 138 134 131 129 126 127 126 122 119 117 115 115 114 110 105 98 89 90 80 75 78 89 102 95 75 49 21 21 14 9 7 359 338 344 9 351 358 347 12 334 74 67 66 55 62 11 7 344 338 332 339 329 328 325 322 318 311 315 315 311 305 302 299 295 283 279 310 310 306 305 303 303 305 305 301 294 294 289 286 284
145 144 142 142 136 135 135 132 132 130 128 126 125 128 124 117 118 122 119 125 120 111 102 96 86 74 63 62 84 100 72 40 34 18 8 3 359 343 346 13 357 358 346 333 341 96 78 76 92 44 17 355 338 334 331 334 330 324 322 321 316 313 314 316 316 317 312 303 294 290 314 314 310 308 307 309 310 310 307 304 302 300 291 281 286
148 145 141 140 138 136 134 133 132 132 128 125 129 130 130 129 124 122 124 129 137 139 126 119 115 103 92 81 57 104 106 71 44 29 12 360 357 343 356 12 2 352 338 330 317 20 134 136 76 35 14 340 334 332 327 329 324 320 319 315 310 312 315 318 321 316 315 311 301 318 321 319 316 314 313 311 310 309 308 302 300 296 290 281 279
144 139 140 138 135 130 130 132 127 124 125 128 130 120 117 126 131 135 151 150 134 121 129 127 129 129 131 113 100 91 107 91 62 44 19 352 353 344 352 17 1 345 336 329 332 349 353 351 358 15 350 333 330 328 325 322 321 314 313 309 307 313 316 320 314 312 306 314 324 328 325 321 318 316 317 317 315 312 308 303 301 299 294 292 283
142 143 138 134 132 130 126 123 121 122 127 127 123 126 133 138 155 165 145 114 109 109 120 133 125 139 147 151 138 113 98 122 103 56 12 341 333 356 343 10 356 342 330 334 337 331 342 351 342 336 330 329 325 323 318 315 311 310 302 298 300 302 308 315 310 307 322 327 327 331 329 324 321 320 319 321 319 317 312 306 306 304 299 299 293
141 139 139 137 128 124 123 121 122 125 125 126 132 121 123 139 132 112 93 100 120 150 170 162 157 145 151 155 157 128 94 79 146 151 347 329 312 303 321 332 331 324 325 335 322 324 341 340 337 323 325 322 319 316 313 309 307 306 293 290 300 305 312 304 309 327 328 328 329 334 331 326 324 323 324 325 323 318 315 312 314 314 305 296 295
143 141 136 129 126 125 125 127 125 129 130 131 125 127 139 142 128 110 122 141 155 160 152 152 165 164 168 166 150 136 129 104 93 131 189 321 328 300 273 268 304 299 316 321 314 329 347 328 321 318 317 314 312 310 306 306 306 308 309 313 314 316 312 328 334 331 332 332 335 336 332 328 327 327 329 330 327 325 321 320 320 318 311 308 301
142 135 128 127 127 129 131 129 128 129 134 128 129 138 143 128 130 138 161 160 160 169 159 188 172 169 169 147 132 132 149 133 156 106 89 354 353 340 327 289 280 284 309 293 325 345 327 319 313 310 309 306 305 303 300 300 325 329 329 321 325 324 331 337 338 339 336 339 338 335 333 329 328 329 332 335 332 328 327 327 329 320 320 320 313
139 131 133 134 134 139 135 134 135 135 134 137 137 144 139 163 164 172 194 188 173 174 168 164 157 137 152 135 132 121 128 147 152 130 102 15 8 2 350 351 315 316 316 314 357 329 318 312 310 309 307 303 295 290 297 330 331 327 326 326 330 335 336 343 341 341 342 344 340 333 331 333 332 327 327 332 330 328 334 335 333 332 331 335 331
134 138 140 141 143 144 139 139 140 137 140 142 143 149 164 188 166 186 207 168 177 162 172 153 153 128 139 142 133 124 119 101 83 64 47 12 3 354 349 356 352 340 329 326 345 335 329 321 311 305 304 297 306 334 334 336 330 329 331 337 343 339 344 343 344 343 345 342 337 333 330 331 333 333 328 330 340 341 344 342 338 341 345 342 344
140 140 142 147 147 144 141 142 140 145 148 147 155 168 181 191 175 191 169 169 174 160 133 153 152 140 132 120 144 140 118 91 74 57 39 13 360 346 349 342 341 339 337 337 343 336 322 314 307 295 275 288 326 347 344 340 333 338 338 344 341 341 343 348 347 343 343 342 335 331 329 331 328 333 342 343 345 344 350 346 344 341 340 343 342
146 147 149 149 146 144 141 138 143 153 161 163 165 171 196 161 171 157 68 77 181 162 152 108 83 125 145 151 146 143 112 99 75 52 39 6 345 336 332 328 331 330 325 336 333 319 312 307 300 299 340 338 348 344 350 342 335 337 341 344 342 339 343 345 351 345 347 341 334 329 331 334 335 340 343 346 345 345 350 353 353 348 349 346 9
146 148 149 146 142 143 140 145 154 159 167 170 141 77 148 218 142 90 61 74 71 26 37 102 65 27 17 77 57 53 86 93 91 130 114 138 259 314 316 311 315 309 309 333 326 310 307 310 305 315 338 345 352 345 344 342 337 339 340 347 342 340 343 352 353 349 347 343 338 335 334 337 334 339 345 347 350 348 350 354 358 358 350 1 13
146 149 150 147 145 145 147 159 163 165 165 161 108 78 45 57 82 105 105 81 78 73 76 85 63 30 17 56 56 47 60 106 150 152 190 217 244 248 259 275 277 279 298 311 301 298 300 310 291 315 330 348 347 345 342 336 339 340 337 347 341 341 341 350 354 347 350 340 336 335 338 337 335 342 345 349 347 351 353 356 357 358 2 4 7
148 151 151 151 153 148 150 173 163 158 167 173 135 115 94 49 63 101 112 117 112 106 105 112 88 75 81 77 86 111 124 143 152 187 213 246 268 279 283 286 295 297 316 344 328 310 305 293 293 328 330 344 346 347 342 335 338 339 342 346 340 338 340 352 346 349 351 340 336 336 337 338 337 339 341 348 350 351 353 357 358 1 8 6 9
152 153 155 149 141 140 161 175 161 156 172 181 145 149 138 124 87 24 95 133 138 139 131 120 120 136 144 131 101 97 126 161 186 210 233 265 276 282 288 293 296 298 300 256 283 293 290 285 317 328 337 347 338 355 339 339 340 343 348 348 342 340 349 352 342 349 348 343 338 339 341 337 337 339 341 348 350 351 356 359 2 5 8 10 13
153 151 143 144 144 148 166 173 171 162 177 176 152 161 165 164 154 156 6 21 31 68 152 164 182 181 180 186 201 203 220 225 219 244 263 270 276 281 292 297 294 290 302 297 258 280 282 295 322 331 348 349 346 350 337 343 345 344 358 349 342 344 353 348 339 348 347 341 338 340 339 338 336 341 340 349 353 354 356 4 4 6 8 12 12
147 148 145 150 156 163 169 172 180 174 170 180 177 172 174 173 170 166 161 177 216 292 267 247 233 226 232 223 220 231 239 250 254 257 263 270 275 282 308 301 295 289 268 248 253 253 272 309 315 340 352 343 343 340 341 343 349 350 353 349 345 346 349 344 343 347 346 343 344 341 341 338 338 343 344 348 354 353 358 3 8 8 11 14 16
150 138 138 148 170 174 171 165 179 184 184 183 195 185 182 174 166 164 174 179 187 195 205 220 224 214 220 225 229 231 237 240 246 251 255 259 268 299 321 304 308 318 302 199 214 227 322 311 323 338 351 343 343 341 345 343 350 353 355 346 348 346 347 344 342 346 347 342 342 345 341 340 340 343 344 347 355 356 358 4 10 13 11 13 16
151 146 149 157 173 190 197 166 179 185 193 183 188 192 190 195 153 171 179 183 187 195 201 201 202 210 215 225 226 228 231 237 242 246 247 253 263 4 309 288 292 291 290 302 341 3 309 303 326 341 346 339 351 346 343 337 347 358 352 347 347 348 347 340 341 347 347 342 341 341 342 344 342 345 348 344 354 357 355 1 11 14 14 15 16
160 159 156 163 174 188 207 190 173 183 189 185 183 185 198 186 185 177 186 185 192 199 201 186 180 180 197 234 239 238 235 241 243 248 262 271 281 238 253 263 270 277 281 293 335 353 305 320 324 343 341 340 354 342 337 338 347 0 349 346 346 347 346 334 338 349 346 344 342 343 343 343 342 349 352 347 345 355 355 354 6 16 19 16 15
165 163 165 172 185 178 191 206 190 167 174 182 192 188 194 192 180 197 206 200 196 193 249 152 164 175 186 220 206 207 229 238 257 288 273 267 258 238 246 249 254 264 271 281 301 314 295 302 320 353 339 342 357 340 347 339 343 355 347 341 340 339 339 335 340 347 346 342 345 344 343 343 342 351 354 350 344 349 355 352 357 11 14 19 22
197 154 159 175 203 189 177 192 184 178 172 185 201 200 181 189 175 188 204 224 191 189 184 205 183 184 197 206 177 194 199 223 218 239 241 237 230 229 228 236 243 245 248 264 277 276 285 306 308 352 338 343 6 340 335 329 335 346 338 338 331 337 342 341 345 346 347 343 343 342 342 342 342 351 355 350 347 346 351 353 350 4 11 14 20
193 155 167 169 199 219 205 177 172 168 170 177 206 208 190 188 191 185 194 207 214 190 193 207 236 259 225 162 174 164 189 207 217 222 233 233 230 228 223 224 230 252 264 275 277 273 268 269 302 318 347 336 358 334 319 330 330 321 324 326 329 336 337 340 345 345 342 339 340 339 341 343 343 350 357 352 348 345 348 350 350 353 11 8 9
198 170 157 178 179 194 220 221 187 172 173 176 200 211 215 188 199 209 191 200 205 214 208 209 216 211 232 163 164 174 185 202 216 215 216 233 242 236 232 233 231 244 249 249 249 253 259 285 295 326 310 325 318 299 302 312 316 315 310 307 316 334 334 340 347 345 337 337 341 338 337 341 344 353 1 348 347 347 348 347 349 351 353 9 7
194 173 153 175 178 183 199 216 214 174 173 175 193 204 209 198 196 198 215 218 208 208 207 224 218 237 156 153 170 185 194 215 218 225 232 236 251 254 245 236 229 221 223 235 240 234 236 250 247 211 203 261 274 279 294 300 299 303 295 295 312 327 345 346 351 341 337 335 338 336 331 338 344 352 357 347 348 348 347 351 347 345 347 356 5
191 185 163 169 185 192 195 200 225 205 185 179 187 197 212 210 205 193 197 198 216 214 224 229 238 239 184 188 179 189 203 210 213 220 226 235 239 265 270 261 248 239 227 228 226 212 196 208 201 172 203 248 287 308 289 279 283 285 298 298 300 311 343 360 352 341 335 333 337 332 329 336 345 348 356 350 347 350 348 348 349 346 343 353 354
192 200 179 175 182 187 197 207 206 225 202 194 187 186 197 216 229 215 205 201 206 215 222 225 226 237 216 182 196 198 216 209 217 221 223 221 226 228 240 253 250 241 233 240 257 238 202 197 203 214 204 299 280 268 275 282 279 284 286 293 291 282 69 41 1 337 327 336 338 333 328 332 341 346 351 349 347 352 348 348 348 346 341 343 357
195 202 194 170 182 190 197 205 215 207 217 191 195 201 190 205 211 223 230 231 215 202 206 207 216 222 228 173 186 197 213 229 233 235 237 239 236 233 227 228 227 229 227 219 213 209 224 209 216 229 233 235 242 260 276 286 284 282 282 275 276 267 140 133 116 295 302 352 346 333 327 327 339 348 345 345 345 348 346 343 344 346 344 335 355
197 196 202 182 176 184 191 197 210 211 204 209 209 208 211 213 219 224 220 223 225 227 228 215 208 203 208 208 192 198 209 219 228 225 222 222 224 234 238 234 231 224 215 208 200 195 183 181 192 217 234 238 234 254 268 270 276 275 270 271 264 200 154 148 148 251 305 33 351 330 319 319 327 345 339 340 337 344 340 337 342 342 342 330 341
199 197 197 204 186 177 184 187 195 211 212 204 206 214 215 213 214 218 220 227 230 227 229 243 242 227 207 210 210 199 200 211 224 226 219 213 213 214 217 218 215 217 215 209 209 199 196 200 206 212 220 228 232 238 248 252 263 269 279 270 275 208 134 139 166 200 155 90 350 321 317 311 318 335 337 334 337 338 339 340 339 335 336 331 330
197 204 199 198 205 194 184 187 192 193 214 213 209 207 213 220 220 216 217 213 216 223 231 234 239 240 238 231 221 220 216 215 218 221 222 222 221 222 225 225 223 222 222 219 210 199 191 190 189 194 203 215 222 227 232 239 248 252 262 265 270 141 160 167 189 188 131 124 277 282 299 314 311 322 330 331 328 333 339 338 334 332 331 329 334
199 201 206 202 201 205 201 193 197 198 200 212 215 212 213 214 224 227 225 226 225 217 211 216 224 233 240 241 237 238 236 232 224 219 214 213 213 213 214 212 208 209 213 220 221 216 208 200 200 201 203 202 199 205 217 224 232 240 245 263 200 168 177 182 188 169 156 160 214 248 291 305 311 309 317 322 324 327 329 327 329 327 325 327 336
227 202 202 203 204 206 209 210 204 205 207 206 210 215 210 214 219 224 229 234 237 236 237 230 222 217 216 222 227 231 235 241 241 240 235 228 217 210 210 216 215 217 223 229 228 214 204 205 206 206 207 208 209 214 215 219 224 230 233 241 212 191 188 195 194 172 173 195 187 205 240 270 288 299 299 303 319 322 319 323 320 319 322 321 340
228 231 222 204 203 205 211 216 217 222 214 207 208 213 215 216 216 217 220 225 234 239 243 244 245 236 233 227 225 223 223 223 225 226 226 225 222 218 219 223 225 226 233 238 223 208 207 209 206 199 197 203 207 211 212 217 219 225 232 231 204 199 198 195 198 199 194 185 181 197 224 247 268 286 287 291 314 309 304 307 309 312 319 316 335